Total_Precipitation_Accumulation
0.01 0.03 0.04 0.04 0.07 0.09 0.09 0.18 0.22 0.23 0.24 0.29 0.40 0.55 0.72 0.81 0.98 1.11 1.13 1.22 1.33 1.48 1.89 2.27 2.83 3.73 4.24 4.93 4.91 4.48 4.10 3.91 3.81 3.71 3.70 3.74 3.88 4.05 4.12 4.05 3.80 3.69 3.62 3.61
0.02 0.02 0.02 0.02 0.06 0.06 0.08 0.13 0.17 0.25 0.31 0.36 0.53 0.68 0.86 0.98 1.06 1.14 1.16 1.31 1.30 1.41 2.02 2.62 3.08 3.57 3.83 3.97 4.25 4.52 4.45 4.36 4.10 4.00 4.23 4.66 4.91 4.87 4.86 4.76 4.65 4.45 4.31 4.24
0.02 0.01 0.01 0.02 0.04 0.04 0.07 0.10 0.13 0.25 0.36 0.50 0.72 0.99 1.08 1.15 1.30 1.25 1.18 1.23 1.28 1.46 1.84 2.44 2.96 3.30 3.68 3.94 4.04 4.31 4.41 4.52 4.65 4.82 4.98 5.36 5.67 5.56 5.32 4.91 4.71 4.51 4.24 4.14
0.01 0.01 0.01 0.03 0.03 0.05 0.08 0.08 0.12 0.19 0.32 0.54 0.70 1.16 1.31 1.32 1.40 1.43 1.46 1.44 1.44 1.61 1.82 2.15 2.54 2.77 3.12 3.38 3.67 3.97 4.15 4.36 4.83 5.50 5.84 5.82 5.87 5.71 5.45 5.08 4.73 4.39 4.10 3.87
0.02 0.01 0.03 0.03 0.03 0.04 0.06 0.06 0.10 0.17 0.25 0.51 0.60 0.93 1.44 1.48 1.55 1.56 1.61 1.65 1.65 1.65 1.80 1.95 1.98 2.26 2.66 2.87 3.09 3.50 3.94 4.36 5.00 5.56 5.87 6.07 5.95 5.64 5.38 4.92 4.54 4.18 3.88 3.56
0.03 0.03 0.03 0.04 0.05 0.04 0.05 0.09 0.15 0.20 0.34 0.64 0.55 0.76 1.48 1.68 1.68 1.57 1.57 1.66 1.64 1.59 1.65 1.75 1.83 1.95 2.20 2.43 2.69 2.94 3.54 4.25 4.66 5.05 5.40 5.55 5.61 5.47 5.13 4.67 4.33 3.99 3.66 3.33
0.07 0.06 0.04 0.05 0.06 0.07 0.11 0.26 0.49 0.64 0.73 0.70 0.46 0.80 1.58 1.80 1.75 1.66 1.66 1.83 1.67 1.47 1.51 1.74 1.79 1.83 2.05 2.28 2.65 2.95 3.35 3.92 4.22 4.29 4.48 4.78 4.91 4.85 4.73 4.53 4.21 3.82 3.35 2.89
0.15 0.14 0.07 0.06 0.09 0.11 0.12 0.26 0.59 0.83 0.81 0.74 0.70 1.26 1.80 1.85 1.74 1.67 1.61 1.69 1.68 1.60 1.66 1.73 1.77 1.87 2.05 2.20 2.36 2.72 2.98 3.49 3.76 3.64 3.72 3.99 4.17 4.14 4.01 3.79 3.40 3.04 2.71 2.42
0.21 0.19 0.08 0.07 0.09 0.09 0.14 0.21 0.29 0.51 0.58 0.80 1.16 1.71 2.11 2.14 2.03 1.90 1.77 1.65 1.61 1.59 1.64 1.72 1.69 1.75 1.92 2.07 2.26 2.38 2.48 2.85 3.15 3.09 3.09 3.10 3.10 3.10 3.01 2.86 2.61 2.36 2.11 1.88
0.15 0.20 0.12 0.09 0.12 0.14 0.16 0.20 0.31 0.57 0.83 1.08 1.34 1.93 2.59 2.55 2.30 2.05 1.89 1.63 1.60 1.50 1.50 1.59 1.62 1.65 1.59 1.64 1.89 2.10 2.09 2.19 2.32 2.32 2.33 2.31 2.36 2.44 2.37 2.14 1.95 1.85 1.75 1.58
0.14 0.23 0.20 0.18 0.21 0.24 0.25 0.27 0.31 0.46 0.62 0.96 1.39 1.97 2.20 2.35 2.24 2.00 1.82 1.62 1.47 1.40 1.46 1.53 1.57 1.56 1.43 1.33 1.40 1.67 1.82 1.78 1.82 1.94 2.00 1.90 1.88 1.85 1.82 1.72 1.58 1.54 1.47 1.36
0.18 0.28 0.35 0.28 0.22 0.20 0.24 0.28 0.34 0.59 0.64 0.74 1.22 1.96 2.00 2.27 2.32 2.19 1.94 1.75 1.71 1.58 1.58 1.58 1.68 1.56 1.44 1.42 1.41 1.48 1.59 1.62 1.59 1.60 1.74 1.76 1.68 1.56 1.52 1.45 1.38 1.30 1.24 1.18
0.22 0.41 0.64 0.69 0.53 0.33 0.28 0.29 0.33 0.40 0.56 0.79 1.32 2.11 2.14 2.16 2.22 2.15 1.91 1.84 1.86 1.83 1.81 1.73 1.68 1.54 1.48 1.49 1.42 1.34 1.38 1.42 1.42 1.38 1.44 1.48 1.43 1.34 1.28 1.25 1.26 1.17 1.09 1.05
0.24 0.44 0.72 1.05 0.89 0.53 0.41 0.35 0.36 0.45 0.71 0.89 1.21 1.73 2.04 2.01 2.09 2.19 2.08 1.86 1.83 1.86 1.83 1.72 1.68 1.60 1.53 1.50 1.39 1.34 1.29 1.22 1.17 1.20 1.24 1.27 1.28 1.25 1.18 1.11 1.09 1.07 1.03 1.01
0.33 0.53 0.50 0.51 0.50 0.47 0.43 0.41 0.42 0.52 0.61 0.94 1.25 1.67 2.02 1.95 2.09 2.33 2.28 2.09 1.94 1.90 1.87 1.76 1.74 1.72 1.66 1.62 1.50 1.39 1.30 1.26 1.21 1.17 1.12 1.16 1.22 1.23 1.18 1.16 1.13 1.09 1.01 0.95
0.37 0.52 0.52 0.47 0.42 0.44 0.49 0.52 0.47 0.51 0.65 0.95 1.31 1.82 1.95 1.98 2.04 2.17 2.27 2.18 2.03 2.00 2.06 2.10 2.09 2.03 1.94 1.85 1.68 1.52 1.40 1.29 1.22 1.20 1.16 1.17 1.18 1.14 1.12 1.12 1.08 1.06 1.01 0.97
0.38 0.53 0.65 0.59 0.40 0.63 0.95 0.80 0.72 0.72 0.82 1.05 1.40 1.64 1.65 1.76 1.97 2.05 2.14 2.27 2.20 2.27 2.38 2.45 2.40 2.30 2.15 2.04 1.93 1.76 1.60 1.47 1.40 1.32 1.21 1.19 1.16 1.07 1.02 0.96 0.95 1.00 0.99 0.93
0.41 0.54 0.64 0.69 0.76 1.30 1.25 0.81 0.77 0.88 1.02 1.09 1.18 1.23 1.45 1.68 1.83 1.88 2.08 2.33 2.38 2.36 2.29 2.32 2.28 2.29 2.18 2.07 1.95 1.79 1.60 1.49 1.37 1.27 1.17 1.12 1.10 1.03 1.00 0.99 0.98 0.97 0.94 0.87
0.27 0.48 0.73 0.88 1.20 1.36 1.28 0.88 0.89 1.08 1.37 1.18 1.18 1.17 1.33 1.43 1.61 1.95 2.04 2.17 2.39 2.27 2.15 2.19 2.24 2.25 2.19 2.09 1.91 1.73 1.58 1.44 1.36 1.25 1.09 1.00 0.95 0.89 0.88 0.92 0.92 0.89 0.87 0.82
0.28 0.42 0.82 1.07 1.40 1.66 1.52 0.88 0.72 1.10 1.97 1.51 1.36 1.34 1.35 1.48 1.88 2.01 1.85 1.82 1.92 2.00 2.09 2.17 2.26 2.29 2.22 2.11 1.82 1.66 1.49 1.32 1.17 1.01 0.89 0.85 0.85 0.79 0.78 0.79 0.79 0.76 0.78 0.77
0.70 0.73 0.91 1.18 1.59 1.72 1.11 0.69 0.77 1.59 2.04 1.62 1.50 1.42 1.45 1.64 1.81 1.63 1.53 1.61 1.74 1.90 2.02 2.09 2.09 2.07 2.04 1.96 1.73 1.60 1.44 1.28 1.03 0.84 0.76 0.78 0.78 0.70 0.66 0.69 0.70 0.69 0.66 0.68
1.00 1.16 1.23 1.36 1.74 1.88 0.92 0.73 1.09 1.40 1.20 1.16 1.18 1.14 1.18 1.26 1.32 1.35 1.40 1.45 1.50 1.62 1.78 1.88 1.91 1.90 1.80 1.68 1.54 1.42 1.29 1.07 0.87 0.76 0.72 0.76 0.76 0.56 0.48 0.59 0.62 0.62 0.68 0.66
0.98 1.12 1.33 1.55 1.83 1.48 0.94 0.89 0.88 0.95 0.99 0.95 0.99 0.95 0.97 1.05 1.12 1.24 1.38 1.43 1.44 1.40 1.52 1.56 1.48 1.40 1.42 1.38 1.26 1.16 1.06 0.89 0.78 0.74 0.74 0.73 0.67 0.56 0.50 0.55 0.58 0.62 0.67 0.64
1.09 0.94 1.16 1.35 1.43 1.16 0.90 0.82 0.77 0.67 0.66 0.71 0.85 0.88 0.86 0.85 0.85 0.97 1.10 1.20 1.24 1.22 1.21 1.22 1.18 1.09 1.05 1.05 1.00 0.91 0.79 0.76 0.76 0.78 0.76 0.74 0.68 0.57 0.50 0.53 0.50 0.51 0.54 0.55
1.07 1.05 1.24 1.42 1.42 1.21 1.02 0.85 0.72 0.64 0.62 0.69 0.73 0.72 0.69 0.64 0.65 0.68 0.81 0.90 0.95 0.95 0.92 0.92 0.96 0.91 0.81 0.76 0.76 0.73 0.67 0.65 0.73 0.74 0.69 0.65 0.58 0.55 0.53 0.47 0.36 0.35 0.36 0.35
0.91 1.04 1.30 1.49 1.29 1.21 1.09 0.84 0.67 0.63 0.63 0.59 0.56 0.53 0.56 0.56 0.56 0.58 0.70 0.78 0.80 0.79 0.78 0.82 0.84 0.79 0.73 0.69 0.65 0.61 0.54 0.53 0.64 0.68 0.65 0.57 0.51 0.49 0.46 0.49 0.40 0.31 0.28 0.26